DW0249 Weather Reports


Display with metric or nautical units.
time (UTC)temp
F
wind
direction
speed
MPH
gust
MPH
rain 1hr
in
rain 24hr
in
rain mn
in
humidity
%
barometer
mb
20200225114517 34 0.0 0.0 0.00 0.00 0.00 94 1035.8
20200225110516 34 0.0 0.0 0.00 0.00 0.00 94 1035.8
20200225105517 34 0.0 0.0 0.00 0.00 0.00 94 1035.9
20200225103516 35 0.0 0.0 0.00 0.00 0.00 94 1036.1
20200225101517 35 0.0 0.0 0.00 0.00 0.00 94 1036.2
20200225100517 35 0.0 0.0 0.00 0.00 0.00 93 1036.3
20200225092517 36 0.0 0.0 0.00 0.00 0.00 93 1036.6
20200225083516 37 0.0 0.0 0.00 0.00 0.00 91 1036.7
20200225082516 37 0.0 0.0 0.00 0.00 0.00 91 1036.7
20200225075516 38 0.0 0.0 0.00 0.00 0.00 90 1036.7
20200225074516 38 0.0 0.0 0.00 0.00 0.00 90 1036.8
20200225073516 38 0.0 0.0 0.00 0.00 0.00 90 1036.7
20200225072516 39 0.0 0.0 0.00 0.00 0.00 90 1036.7
20200225064516 39 0.0 0.0 0.00 0.00 0.00 88 1037.1
20200225063516 39 0.0 0.0 0.00 0.00 0.00 87 1037.1
20200225062516 39 0.0 0.0 0.00 0.00 0.00 87 1037.1
20200225060516 39 0.0 0.0 0.00 0.00 0.00 87 1037.1
20200225054516 39 0.0 0.0 0.00 0.00 0.00 86 1037.1
20200225053516 40 0.0 0.0 0.00 0.00 0.00 85 1036.9
20200225050516 41 0.0 0.0 0.00 0.00 0.00 82 1036.7
20200225045516 41 0.0 0.0 0.00 0.00 0.00 82 1036.4
20200225043516 41 0.0 0.0 0.00 0.00 0.00 80 1036.3
20200225041516 42 0.0 0.0 0.00 0.00 0.00 80 1036.4
20200225030516 44 0.0 0.0 0.00 0.00 0.00 74 1036.0
20200225024516 45 0.0 0.0 0.00 0.00 0.00 73 1035.8
20200225022515 46 0.0 0.0 0.00 0.00 0.00 69 1035.6
20200225021515 46 0.0 0.0 0.00 0.00 0.00 67 1035.8
20200225020515 47 0.0 0.0 0.00 0.00 0.00 68 1035.8
20200225013515 48 0.0 0.0 0.00 0.00 0.00 61 1035.8
20200225011515 49 0.0 1.0 0.00 0.00 0.00 59 1035.6
20200225010515 49 0.0 0.0 0.00 0.00 0.00 61 1035.6
20200225005515 49 0.0 1.0 0.00 0.00 0.00 58 1035.7
20200225001515 49 0.0 3.0 0.00 0.00 0.00 57 1035.7
20200224235515 49 158 1.0 4.0 0.00 0.01 0.00 54 1035.6
20200224234515 50 90 1.0 5.0 0.00 0.01 0.00 55 1035.6
20200224233515 51 135 2.0 6.0 0.00 0.02 0.00 53 1035.6
20200224232515 50 0.0 4.0 0.00 0.02 0.00 54 1035.4
20200224231515 50 135 2.0 4.0 0.00 0.02 0.00 54 1035.5
20200224225517 49 180 1.0 5.0 0.00 0.02 0.00 56 1035.2
20200224224517 49 315 1.0 2.0 0.00 0.02 0.00 57 1035.2
20200224222517 50 0.0 2.0 0.00 0.02 0.00 58 1035.4
20200224221517 49 0.0 2.0 0.00 0.02 0.00 63 1035.4
20200224220517 49 0.0 1.0 0.00 0.02 0.00 61 1035.4
20200224215517 49 315 1.0 5.0 0.00 0.02 0.00 58 1035.4
20200224213517 49 338 1.0 2.0 0.00 0.03 0.00 57 1035.3
20200224211517 51 135 1.0 4.0 0.00 0.03 0.00 51 1035.3
20200224205517 49 225 1.0 4.0 0.00 0.03 0.00 55 1035.4
20200224200516 50 135 1.0 4.0 0.00 0.04 0.00 61 1035.4
20200224195516 49 135 1.0 3.0 0.00 0.04 0.00 60 1035.5
20200224192516 49 293 2.0 5.0 0.00 0.05 0.00 65 1035.6
20200224191516 49 113 1.0 4.0 0.00 0.05 0.00 60 1035.7
20200224184517 47 225 1.0 7.0 0.00 0.06 0.00 67 1035.6
20200224182516 46 135 1.0 4.0 0.00 0.06 0.00 71 1035.6
20200224181516 45 293 1.0 9.0 0.00 0.06 0.00 74 1035.5
20200224175517 44 135 1.0 5.0 0.00 0.07 0.00 77 1035.2
20200224174516 44 158 1.0 7.0 0.00 0.07 0.00 78 1035.3
20200224173516 43 0 1.0 3.0 0.00 0.08 0.00 79 1035.4
20200224171517 42 0.0 2.0 0.00 0.09 0.00 83 1035.3
20200224165516 42 248 1.0 4.0 0.00 0.09 0.00 83 1035.2
20200224162516 41 0 1.0 3.0 0.00 0.12 0.00 85 1035.0
20200224161516 41 0.0 2.0 0.00 0.13 0.00 85 1034.8
20200224154516 40 248 1.0 6.0 0.00 0.15 0.00 85 1034.3
20200224153516 40 338 1.0 4.0 0.00 0.18 0.00 85 1034.3
20200224144516 40 270 1.0 4.0 0.00 0.32 0.00 84 1034.0
20200224140515 41 0 1.0 3.0 0.00 0.43 0.00 82 1034.0
20200224133516 41 270 1.0 5.0 0.00 0.44 0.00 81 1034.2
20200224131515 41 338 1.0 3.0 0.00 0.45 0.00 81 1033.8